| time (UTC) | temp F | wind direction | speed knots | gust knots | rain 1hr in | rain 24hr in | rain mn in | humidity % | barometer mb |
| 20260504110322 | 40 | 167 | 0.0 | 0.0 | 0.00 | 0.00 | 0.00 | 10 | 1016.1 |
| 20260504100240 | 43 | 225 | 1.7 | 1.7 | 0.00 | 0.00 | 0.00 | 10 | 1015.8 |
| 20260504081633 | 44 | 218 | 2.6 | 4.3 | 0.00 | 0.00 | 0.00 | 10 | 1015.5 |
| 20260504081129 | 44 | 197 | 2.6 | 2.6 | 0.00 | 0.00 | 0.00 | 10 | 1015.5 |
| 20260504080626 | 44 | 203 | 2.6 | 2.6 | 0.00 | 0.00 | 0.00 | 10 | 1015.8 |
| 20260504080122 | 44 | 227 | 2.6 | 4.3 | 0.00 | 0.00 | 0.00 | 10 | 1015.5 |
| 20260504050439 | 51 | 168 | 3.5 | 4.3 | 0.00 | 0.00 | 0.00 | 10 | 1015.0 |
| 20260504045936 | 51 | 78 | 4.3 | 5.2 | 0.00 | 0.00 | 0.00 | 10 | 1014.9 |
| 20260504045432 | 51 | 326 | 12.2 | 15.6 | 0.00 | 0.00 | 0.00 | 10 | 1014.9 |
| 20260504044928 | 51 | 50 | 10.4 | 13.0 | 0.00 | 0.00 | 0.00 | 10 | 1014.6 |
| 20260504044426 | 52 | 330 | 10.4 | 12.2 | 0.00 | 0.00 | 0.00 | 10 | 1014.5 |
| 20260504043923 | 52 | 353 | 7.8 | 11.3 | 0.00 | 0.00 | 0.00 | 10 | 1014.4 |
| 20260504043420 | 53 | 343 | 6.1 | 7.0 | 0.00 | 0.00 | 0.00 | 10 | 1014.5 |
| 20260504042917 | 53 | 10 | 10.4 | 13.9 | 0.00 | 0.00 | 0.00 | 10 | 1014.4 |
| 20260504042414 | 53 | 20 | 7.8 | 11.3 | 0.00 | 0.00 | 0.00 | 10 | 1014.3 |
| 20260504041910 | 52 | 339 | 4.3 | 7.0 | 0.00 | 0.00 | 0.00 | 10 | 1014.2 |
| 20260504041406 | 52 | 101 | 3.5 | 4.3 | 0.00 | 0.00 | 0.00 | 10 | 1014.1 |
| 20260504040902 | 53 | 211 | 3.5 | 4.3 | 0.00 | 0.00 | 0.00 | 10 | 1014.1 |
| 20260504040400 | 52 | 330 | 6.1 | 7.0 | 0.00 | 0.00 | 0.00 | 10 | 1014.0 |
| 20260504035856 | 52 | 325 | 4.3 | 6.1 | 0.00 | 0.00 | 0.00 | 10 | 1013.7 |
| 20260504035354 | 53 | 3 | 6.1 | 7.0 | 0.00 | 0.00 | 0.00 | 10 | 1013.9 |
| 20260504034850 | 53 | 194 | 2.6 | 2.6 | 0.00 | 0.00 | 0.00 | 10 | 1013.7 |
| 20260504034348 | 55 | 10 | 7.0 | 8.7 | 0.00 | 0.00 | 0.00 | 10 | 1013.6 |
| 20260504033844 | 55 | 158 | 5.2 | 6.1 | 0.00 | 0.00 | 0.00 | 10 | 1013.4 |
| 20260504033343 | 55 | 31 | 4.3 | 6.1 | 0.00 | 0.00 | 0.00 | 10 | 1013.2 |
| 20260504032839 | 55 | 37 | 4.3 | 6.1 | 0.00 | 0.00 | 0.00 | 10 | 1013.1 |
| 20260504032336 | 55 | 103 | 4.3 | 6.1 | 0.00 | 0.00 | 0.00 | 10 | 1012.8 |
| 20260504031833 | 56 | 89 | 2.6 | 4.3 | 0.00 | 0.00 | 0.00 | 10 | 1012.6 |
| 20260504031330 | 56 | 141 | 0.0 | 0.0 | 0.00 | 0.00 | 0.00 | 10 | 1012.5 |
| 20260504030826 | 56 | 21 | 2.6 | 4.3 | 0.00 | 0.00 | 0.00 | 10 | 1012.3 |
| 20260504030324 | 56 | 100 | 1.7 | 1.7 | 0.00 | 0.00 | 0.00 | 10 | 1012.4 |
| 20260504025820 | 56 | 33 | 4.3 | 6.1 | 0.00 | 0.00 | 0.00 | 10 | 1012.2 |
| 20260504025317 | 56 | 41 | 4.3 | 6.1 | 0.00 | 0.00 | 0.00 | 10 | 1012.1 |
| 20260504024813 | 56 | 88 | 4.3 | 6.1 | 0.00 | 0.00 | 0.00 | 10 | 1012.1 |
| 20260504024310 | 56 | 32 | 6.1 | 7.8 | 0.00 | 0.00 | 0.00 | 10 | 1011.7 |
| 20260504023807 | 57 | 358 | 7.0 | 7.0 | 0.00 | 0.00 | 0.00 | 10 | 1011.5 |
| 20260504023303 | 57 | 121 | 3.5 | 5.2 | 0.00 | 0.00 | 0.00 | 10 | 1011.6 |
| 20260504022759 | 57 | 58 | 6.1 | 7.8 | 0.00 | 0.00 | 0.00 | 10 | 1011.5 |
| 20260504022256 | 57 | 3 | 9.6 | 13.0 | 0.00 | 0.00 | 0.00 | 10 | 1011.6 |
| 20260504021752 | 57 | 347 | 7.0 | 7.8 | 0.00 | 0.00 | 0.00 | 10 | 1010.9 |
| 20260504021250 | 58 | 23 | 13.0 | 18.2 | 0.00 | 0.00 | 0.00 | 10 | 1011.2 |
| 20260504020747 | 58 | 17 | 11.3 | 13.9 | 0.00 | 0.00 | 0.00 | 10 | 1010.8 |
| 20260504020243 | 59 | 6 | 11.3 | 13.0 | 0.00 | 0.00 | 0.00 | 10 | 1010.7 |
| 20260504015739 | 60 | 20 | 7.0 | 7.8 | 0.00 | 0.00 | 0.00 | 10 | 1010.8 |
| 20260504015236 | 60 | 359 | 16.5 | 20.0 | 0.00 | 0.00 | 0.00 | 10 | 1010.6 |
| 20260504014732 | 60 | 1 | 8.7 | 11.3 | 0.00 | 0.00 | 0.00 | 10 | 1010.6 |
| 20260504014228 | 60 | 16 | 13.0 | 17.4 | 0.00 | 0.00 | 0.00 | 10 | 1010.3 |
| 20260504013726 | 62 | 55 | 8.7 | 9.6 | 0.00 | 0.00 | 0.00 | 10 | 1010.1 |
| 20260504013224 | 63 | 51 | 8.7 | 11.3 | 0.00 | 0.00 | 0.00 | 10 | 1010.1 |
| 20260504012720 | 63 | 11 | 7.0 | 8.7 | 0.00 | 0.00 | 0.00 | 10 | 1009.9 |
| 20260504012218 | 64 | 29 | 7.8 | 8.7 | 0.00 | 0.00 | 0.00 | 10 | 1009.9 |
| 20260504011715 | 64 | 10 | 6.1 | 7.8 | 0.00 | 0.00 | 0.00 | 10 | 1009.7 |
| 20260504011212 | 64 | 8 | 7.0 | 7.8 | 0.00 | 0.00 | 0.00 | 10 | 1009.8 |
| 20260504010708 | 64 | 6 | 7.8 | 8.7 | 0.00 | 0.00 | 0.00 | 10 | 1009.7 |
| 20260504010203 | 64 | 2 | 9.6 | 11.3 | 0.00 | 0.00 | 0.00 | 10 | 1009.9 |
| 20260504005700 | 64 | 266 | 6.1 | 7.8 | 0.00 | 0.00 | 0.00 | 10 | 1009.7 |
| 20260504005157 | 64 | 314 | 7.8 | 8.7 | 0.00 | 0.00 | 0.00 | 10 | 1009.6 |
| 20260504004655 | 64 | 6 | 6.1 | 7.8 | 0.00 | 0.00 | 0.00 | 10 | 1009.7 |
| 20260504004152 | 65 | 46 | 8.7 | 9.6 | 0.00 | 0.00 | 0.00 | 10 | 1009.8 |
| 20260504003648 | 65 | 34 | 6.1 | 7.8 | 0.00 | 0.00 | 0.00 | 10 | 1009.7 |
| 20260504003145 | 64 | 27 | 10.4 | 14.8 | 0.00 | 0.00 | 0.00 | 10 | 1009.4 |
| 20260504002642 | 64 | 2 | 13.9 | 17.4 | 0.00 | 0.00 | 0.00 | 10 | 1009.6 |
| 20260504002139 | 65 | 9 | 12.2 | 13.9 | 0.00 | 0.00 | 0.00 | 10 | 1009.5 |
| 20260504001637 | 65 | 331 | 11.3 | 13.0 | 0.00 | 0.00 | 0.00 | 10 | 1009.5 |
| 20260504001133 | 65 | 27 | 9.6 | 13.9 | 0.00 | 0.00 | 0.00 | 10 | 1009.1 |
| 20260504000630 | 65 | 18 | 10.4 | 13.9 | 0.00 | 0.00 | 0.00 | 10 | 1009.5 |
| 20260504000127 | 65 | 327 | 10.4 | 13.9 | 0.00 | 0.00 | 0.00 | 10 | 1009.4 |
| 20260503235626 | 65 | 35 | 4.3 | 6.1 | 0.00 | 0.00 | 0.00 | 10 | 1009.0 |
| 20260503235122 | 66 | 342 | 9.6 | 13.0 | 0.00 | 0.00 | 0.00 | 10 | 1008.9 |
| 20260503234620 | 65 | 41 | 9.6 | 13.9 | 0.00 | 0.00 | 0.00 | 10 | 1008.9 |
| 20260503234118 | 65 | 340 | 7.8 | 7.8 | 0.00 | 0.00 | 0.00 | 10 | 1008.9 |
| 20260503233615 | 65 | 10 | 13.0 | 17.4 | 0.00 | 0.00 | 0.00 | 10 | 1008.7 |
| 20260503233110 | 65 | 96 | 10.4 | 13.0 | 0.00 | 0.00 | 0.00 | 10 | 1008.6 |
| 20260503232607 | 66 | 14 | 12.2 | 15.6 | 0.00 | 0.00 | 0.00 | 10 | 1009.0 |
| 20260503232105 | 66 | 18 | 8.7 | 11.3 | 0.00 | 0.00 | 0.00 | 10 | 1008.8 |
| 20260503231603 | 66 | 4 | 14.8 | 17.4 | 0.00 | 0.00 | 0.00 | 10 | 1008.9 |
| 20260503231059 | 67 | 24 | 9.6 | 13.0 | 0.00 | 0.00 | 0.00 | 10 | 1008.6 |
| 20260503230555 | 67 | 34 | 15.6 | 21.7 | 0.00 | 0.00 | 0.00 | 10 | 1008.8 |
| 20260503230053 | 68 | 196 | 9.6 | 13.0 | 0.00 | 0.00 | 0.00 | 10 | 1008.3 |
| 20260503225550 | 67 | 1 | 9.6 | 14.8 | 0.00 | 0.00 | 0.00 | 10 | 1008.6 |
| 20260503225045 | 68 | 7 | 10.4 | 13.0 | 0.00 | 0.00 | 0.00 | 10 | 1008.2 |
| 20260503224543 | 67 | 10 | 10.4 | 12.2 | 0.00 | 0.00 | 0.00 | 10 | 1008.3 |
| 20260503224040 | 69 | 10 | 10.4 | 13.9 | 0.00 | 0.00 | 0.00 | 10 | 1008.2 |
| 20260503223538 | 69 | 29 | 8.7 | 13.0 | 0.00 | 0.00 | 0.00 | 10 | 1008.0 |
| 20260503223033 | 71 | 92 | 4.3 | 6.1 | 0.00 | 0.00 | 0.00 | 10 | 1007.9 |
| 20260503222532 | 70 | 90 | 8.7 | 11.3 | 0.00 | 0.00 | 0.00 | 10 | 1008.0 |
| 20260503222030 | 70 | 49 | 5.2 | 7.8 | 0.00 | 0.00 | 0.00 | 10 | 1008.1 |
| 20260503221528 | 70 | 61 | 10.4 | 13.0 | 0.00 | 0.00 | 0.00 | 10 | 1008.0 |
| 20260503221025 | 70 | 66 | 1.7 | 2.6 | 0.00 | 0.00 | 0.00 | 10 | 1007.8 |
| 20260503220521 | 70 | 46 | 7.0 | 9.6 | 0.00 | 0.00 | 0.00 | 10 | 1007.9 |
| 20260503220018 | 70 | 303 | 3.5 | 7.0 | 0.00 | 0.00 | 0.00 | 10 | 1008.1 |
| 20260503215515 | 70 | 40 | 7.8 | 8.7 | 0.00 | 0.00 | 0.00 | 10 | 1007.9 |
| 20260503215012 | 71 | 359 | 6.1 | 7.0 | 0.00 | 0.00 | 0.00 | 10 | 1008.0 |
| 20260503214510 | 69 | 36 | 12.2 | 14.8 | 0.00 | 0.00 | 0.00 | 10 | 1008.3 |
| 20260503214006 | 69 | 24 | 7.8 | 12.2 | 0.00 | 0.00 | 0.00 | 10 | 1008.0 |
| 20260503213505 | 70 | 51 | 8.7 | 11.3 | 0.00 | 0.00 | 0.00 | 10 | 1008.2 |
| 20260503213001 | 70 | 31 | 8.7 | 12.2 | 0.00 | 0.00 | 0.00 | 10 | 1008.3 |
| 20260503212459 | 70 | 38 | 11.3 | 15.6 | 0.00 | 0.00 | 0.00 | 10 | 1008.2 |
| 20260503211956 | 70 | 48 | 10.4 | 13.0 | 0.00 | 0.00 | 0.00 | 10 | 1008.3 |
| 20260503211453 | 70 | 301 | 6.1 | 7.8 | 0.00 | 0.00 | 0.00 | 10 | 1008.2 |
| 20260503210948 | 72 | 304 | 8.7 | 9.6 | 0.00 | 0.00 | 0.00 | 10 | 1008.5 |
| 20260503210445 | 71 | 239 | 14.8 | 18.2 | 0.00 | 0.00 | 0.00 | 10 | 1008.1 |
| 20260503205940 | 72 | 243 | 7.8 | 9.6 | 0.00 | 0.00 | 0.00 | 10 | 1008.2 |
| 20260503205437 | 71 | 254 | 11.3 | 14.8 | 0.00 | 0.00 | 0.00 | 10 | 1008.0 |
| 20260503204933 | 71 | 206 | 7.8 | 11.3 | 0.00 | 0.00 | 0.00 | 10 | 1007.9 |
| 20260503204431 | 71 | 154 | 8.7 | 9.6 | 0.00 | 0.00 | 0.00 | 10 | 1008.2 |
| 20260503203928 | 70 | 180 | 3.5 | 4.3 | 0.00 | 0.00 | 0.00 | 10 | 1008.6 |
| 20260503203425 | 68 | 163 | 3.5 | 6.1 | 0.00 | 0.00 | 0.00 | 10 | 1008.5 |
| 20260503202921 | 70 | 182 | 5.2 | 7.0 | 0.00 | 0.00 | 0.00 | 10 | 1008.6 |
| 20260503202420 | 70 | 182 | 1.7 | 1.7 | 0.00 | 0.00 | 0.00 | 10 | 1008.9 |
| 20260503201918 | 69 | 177 | 4.3 | 6.1 | 0.00 | 0.00 | 0.00 | 10 | 1009.0 |
| 20260503201415 | 68 | 180 | 2.6 | 2.6 | 0.00 | 0.00 | 0.00 | 10 | 1009.0 |
| 20260503200912 | 66 | 229 | 7.8 | 8.7 | 0.00 | 0.00 | 0.00 | 10 | 1009.0 |
| 20260503200408 | 67 | 199 | 6.1 | 8.7 | 0.00 | 0.00 | 0.00 | 10 | 1009.4 |
| 20260503195905 | 66 | 208 | 7.8 | 8.7 | 0.00 | 0.00 | 0.00 | 10 | 1009.1 |
| 20260503195402 | 66 | 210 | 7.0 | 13.9 | 0.00 | 0.00 | 0.00 | 10 | 1009.4 |
| 20260503194859 | 66 | 196 | 7.0 | 9.6 | 0.00 | 0.00 | 0.00 | 10 | 1009.4 |
| 20260503194355 | 68 | 174 | 6.1 | 8.7 | 0.00 | 0.00 | 0.00 | 10 | 1009.7 |
| 20260503193851 | 66 | 165 | 5.2 | 6.1 | 0.00 | 0.00 | 0.00 | 10 | 1009.6 |
| 20260503193347 | 67 | 173 | 5.2 | 6.1 | 0.00 | 0.00 | 0.00 | 10 | 1009.5 |
| 20260503192843 | 67 | 203 | 7.0 | 8.7 | 0.00 | 0.00 | 0.00 | 10 | 1009.8 |
| 20260503192339 | 66 | 169 | 8.7 | 13.0 | 0.00 | 0.00 | 0.00 | 10 | 1010.1 |
| 20260503191835 | 67 | 176 | 5.2 | 7.0 | 0.00 | 0.00 | 0.00 | 10 | 1010.0 |
| 20260503191333 | 64 | 200 | 6.1 | 8.7 | 0.00 | 0.00 | 0.00 | 10 | 1010.1 |
| 20260503190829 | 65 | 184 | 7.0 | 8.7 | 0.00 | 0.00 | 0.00 | 10 | 1010.0 |
| 20260503190326 | 66 | 235 | 7.0 | 8.7 | 0.00 | 0.00 | 0.00 | 10 | 1010.1 |
| 20260503185823 | 68 | 190 | 7.0 | 7.8 | 0.00 | 0.00 | 0.00 | 10 | 1010.3 |
| 20260503185319 | 66 | 163 | 4.3 | 6.1 | 0.00 | 0.00 | 0.00 | 10 | 1010.5 |
| 20260503184814 | 65 | 186 | 4.3 | 5.2 | 0.00 | 0.00 | 0.00 | 10 | 1010.4 |
| 20260503184310 | 66 | 190 | 4.3 | 7.0 | 0.00 | 0.00 | 0.00 | 10 | 1010.4 |
| 20260503183806 | 65 | 155 | 5.2 | 6.1 | 0.00 | 0.00 | 0.00 | 10 | 1010.8 |
| 20260503183304 | 65 | 207 | 6.1 | 7.0 | 0.00 | 0.00 | 0.00 | 10 | 1010.9 |
| 20260503182801 | 68 | 224 | 3.5 | 5.2 | 0.00 | 0.00 | 0.00 | 10 | 1010.9 |
| 20260503182300 | 67 | 155 | 4.3 | 6.1 | 0.00 | 0.00 | 0.00 | 10 | 1010.8 |
| 20260503181756 | 66 | 237 | 4.3 | 5.2 | 0.00 | 0.00 | 0.00 | 10 | 1010.9 |
| 20260503181253 | 66 | 222 | 4.3 | 5.2 | 0.00 | 0.00 | 0.00 | 10 | 1011.0 |
| 20260503180750 | 66 | 311 | 6.1 | 7.8 | 0.00 | 0.00 | 0.00 | 10 | 1011.2 |
| 20260503180248 | 66 | 232 | 5.2 | 6.1 | 0.00 | 0.00 | 0.00 | 10 | 1011.0 |
| 20260503175744 | 66 | 308 | 8.7 | 9.6 | 0.00 | 0.00 | 0.00 | 10 | 1011.4 |
| 20260503175242 | 65 | 235 | 5.2 | 7.0 | 0.00 | 0.00 | 0.00 | 10 | 1011.3 |
| 20260503174738 | 65 | 293 | 5.2 | 7.0 | 0.00 | 0.00 | 0.00 | 10 | 1011.2 |
| 20260503174237 | 67 | 211 | 4.3 | 6.1 | 0.00 | 0.00 | 0.00 | 10 | 1011.4 |
| 20260503173736 | 65 | 168 | 3.5 | 4.3 | 0.00 | 0.00 | 0.00 | 10 | 1011.8 |
| 20260503173233 | 64 | 214 | 2.6 | 4.3 | 0.00 | 0.00 | 0.00 | 10 | 1011.5 |
| 20260503172730 | 63 | 185 | 1.7 | 4.3 | 0.00 | 0.00 | 0.00 | 10 | 1011.7 |
| 20260503172227 | 61 | 192 | 2.6 | 4.3 | 0.00 | 0.00 | 0.00 | 10 | 1011.7 |
| 20260503171723 | 62 | 183 | 1.7 | 1.7 | 0.00 | 0.00 | 0.00 | 10 | 1011.9 |
| 20260503171220 | 62 | 168 | 0.9 | 0.9 | 0.00 | 0.00 | 0.00 | 10 | 1011.9 |
| 20260503170717 | 59 | 179 | 6.1 | 7.8 | 0.00 | 0.00 | 0.00 | 10 | 1012.1 |
| 20260503170214 | 59 | 185 | 4.3 | 6.1 | 0.00 | 0.00 | 0.00 | 10 | 1012.1 |
| 20260503160136 | 59 | 192 | 7.8 | 8.7 | 0.00 | 0.00 | 0.00 | 10 | 1012.3 |
| 20260503150606 | 54 | 175 | 2.6 | 5.2 | 0.00 | 0.00 | 0.00 | 10 | 1013.1 |
| 20260503130955 | 36 | 270 | 4.3 | 5.2 | 0.00 | 0.00 | 0.00 | 10 | 1013.4 |
| 20260503130453 | 36 | 264 | 4.3 | 5.2 | 0.00 | 0.00 | 0.00 | 10 | 1013.3 |